[[{"header":{"parameterUnit":"m.s-1","parameterCategory":1,"la1":30.2991,"la2":30.254,"lo1":-89.0895,"lo2":-89.0444,"dy":0.0017,"dx":0.0017,"nx":28,"ny":28,"refTime":"2023-10-18T09:00:00:Z","depth":0,"parameterNumber":2,"parameterNumberName":"U-component_of_WINDS"},"data":[0,0,0,0,0,0,0,0,0,0,0,0,0,0,0,0,0,0,0,0,0,0,0,0,0,0,0,0,0,0,0,0,0,0,0,0,0,0,0,0,0,0,0,0,0,0,0,0,0,0,0,0,0,0,0,0,0,0,0.3709,0.3709,0,0.3731,0.3731,0.3731,0.3632,0.3629,0.3626,0.3624,0.3652,0.3655,0.3659,0,0,0,0,0,0,0,0,0,0,0,0,0,0.3586,0.3589,0.3709,0.3709,0.371,0.373,0.3731,0.3731,0.3633,0.3629,0.3626,0.3622,0.3651,0.3655,0.3659,0,0,0,0,0,0,0,0,0,0,0,0,0,0.3627,0.359,0.3709,0.3663,0.3659,0.373,0.3731,0.3731,0.3633,0.3629,0.3625,0.3621,0.365,0.3655,0.366,0.3779,0,0,0.3676,0.3678,0,0,0,0,0,0,0,0,0.3625,0.3632,0.3669,0.3666,0.3662,0.3674,0.3698,0.3747,0.3634,0.3643,0.3624,0.3618,0.3663,0.3667,0.3681,0.378,0.3781,0.3676,0.3679,0.3681,0.3683,0,0,0,0,0,0,0,0.3622,0.363,0.3718,0.367,0.3665,0.3642,0.3643,0.3707,0.3678,0.3642,0.3635,0.3639,0.366,0.3676,0.3681,0.3782,0.3676,0.3681,0.3684,0.3686,0.3979,0.3983,0,0,0,0,0,0,0.3625,0.3629,0.3717,0.3718,0.3632,0.3648,0.3649,0.3675,0.3677,0.3673,0.3642,0.3634,0.3669,0.3675,0.3682,0.3821,0.3681,0.3686,0.3689,0.3974,0.398,0.3985,0,0,0,0,0,0,0.3623,0.3634,0.3716,0.3671,0.368,0.3655,0.3684,0.3677,0.3693,0.3677,0.3671,0.3663,0.3666,0.3674,0.3755,0.3821,0.3689,0.3693,0.3969,0.3976,0.3982,0.4102,0,0,0,0,0,0,0.362,0.3634,0.3678,0.3673,0.3683,0.3788,0.3688,0.3681,0.3701,0.3691,0.3695,0.3692,0.3663,0.3747,0.376,0.3826,0.3697,0.3963,0.3972,0.398,0.4092,0.4112,0.4129,0,0,0,0,0,0.3616,0.3712,0.3681,0.3692,0.3738,0.3792,0.3798,0.3762,0.3707,0.3752,0.3741,0.3692,0.3811,0.3757,0.377,0.3838,0.3958,0.3969,0.3979,0.4084,0.4108,0.4129,0,0,0,0,0,0,0.3729,0.3711,0.3676,0.3774,0.3785,0.3775,0.3831,0.3789,0.3818,0.3807,0.3762,0.3764,0.3853,0.3853,0.3793,0.3953,0.3875,0.3889,0.395,0.3973,0.3991,0.3991,0.3702,0,0,0,0,0,0.3764,0.3809,0.3791,0.3879,0.3886,0.3858,0.3881,0.3851,0.3862,0.3867,0.3862,0.3876,0.3916,0.3944,0.398,0.409,0.409,0.4143,0.4162,0.4177,0.4191,0.4249,0.4272,0.4019,0.4019,0.4019,0,0,0.384,0.3836,0.3867,0.3902,0.3907,0.3956,0.3863,0.3918,0.3954,0.3876,0.3951,0.3948,0.396,0.4056,0.4098,0.4059,0.426,0.4191,0.4203,0.4208,0.4262,0.4286,0.4307,0.4026,0.4025,0.4024,0,0,0.4003,0.4003,0.4077,0.4083,0.4091,0.407,0.4088,0.4084,0.4078,0.4152,0.4094,0.4136,0.4207,0.4218,0.4233,0.4396,0.4352,0.4409,0.4508,0.4565,0.4585,0.4602,0.4662,0.4684,0.4421,0.4422,0.4422,0,0.4097,0.4166,0.412,0.4179,0.4196,0.4123,0.4198,0.4207,0.4227,0.4242,0.4196,0.4282,0.4285,0.4382,0.4422,0.4436,0.4455,0.441,0.4585,0.4602,0.4618,0.4675,0.4697,0.4429,0.4428,0.4427,0.4427,0,0.4281,0.433,0.4388,0.4407,0.443,0.4497,0.4462,0.4491,0.4458,0.4443,0.452,0.452,0.4555,0.4575,0.4545,0.4668,0.4643,0.4592,0.4515,0.465,0.4702,0.4724,0.4439,0.4436,0.4434,0.4433,0,0,0.4521,0.451,0.4533,0.454,0.4541,0.4579,0.4641,0.4672,0.4699,0.4714,0.4767,0.4826,0.4778,0.4795,0.4765,0.4815,0.4945,0.4757,0.4757,0.4794,0.5082,0.5122,0.5148,0.4914,0.4918,0.4921,0.5081,0,0.4682,0.4787,0.4746,0.4855,0.49,0.4829,0.4884,0.4891,0.4878,0.4915,0.49,0.4943,0.4876,0.4886,0.4931,0.492,0.5003,0.4907,0.4965,0.4967,0.4967,0.5175,0.5218,0.5369,0.5101,0.5104,0.5107,0,0.4885,0.4905,0.5018,0.501,0.5027,0.5077,0.5102,0.5137,0.5144,0.513,0.5147,0.5105,0.5167,0.5086,0.5171,0.5107,0.5128,0.5125,0.513,0.5137,0.5048,0.519,0.5417,0.5441,0.5138,0.5136,0.5134,0,0.505,0.5106,0.5181,0.5189,0.5181,0.5217,0.5216,0.5218,0.5239,0.526,0.5274,0.5303,0.532,0.5344,0.5312,0.5255,0.5402,0.5318,0.5395,0.5396,0.5432,0.5431,0.5669,0.5441,0.544,0.544,0.5439,0,0.5236,0.5309,0.5255,0.5301,0.538,0.5332,0.5411,0.5402,0.5404,0.5448,0.5389,0.5432,0.5385,0.5424,0.5398,0.5473,0.5481,0.5473,0.5467,0.5481,0.5482,0.5496,0.5486,0.5446,0.5445,0.5443,0.5442,0,0.5437,0.5403,0.548,0.5464,0.5462,0.5521,0.5508,0.5551,0.5531,0.5588,0.5598,0.5569,0.5611,0.5579,0.5622,0.5605,0.5704,0.5681,0.5702,0.5697,0.5776,0.577,0.6033,0.6066,0.5815,0.5817,0.5819,0,0.5559,0.5612,0.5601,0.5625,0.5627,0.5667,0.5687,0.564,0.5664,0.5674,0.5716,0.5752,0.5779,0.585,0.5834,0.5866,0.5844,0.5934,0.5849,0.5861,0.5848,0.5847,0.5853,0.5953,0.5956,0.5959,0.596,0,0.578,0.576,0.579,0.5814,0.5838,0.5856,0.5868,0.5892,0.5844,0.5874,0.5915,0.5935,0.5977,0.6014,0.604,0.6039,0.5994,0.5986,0.6006,0.6023,0.6034,0.6031,0.5752,0.5982,0.598,0.5978,0.5977,0.5976,0.5947,0.5991,0.5989,0.6024,0.6028,0.604,0.6079,0.6063,0.6095,0.6124,0.6094,0.6145,0.6148,0.6177,0.6182,0.6221,0.6185,0.6213,0.6221,0.6229,0.6241,0.6024,0.6225,0.6225,0.6224,0.6224,0.6223,0,0.6167,0.6161,0.6194,0.6211,0.6239,0.6188,0.6199,0.6226,0.627,0.6276,0.6302,0.6349,0.6384,0.6369,0.64,0.6434,0.6414,0.6444,0.6443,0.6444,0.6271,0.6252,0.646,0.646,0.646,0.646,0.646,0.646,0.6285,0.6357,0.6336,0.6409,0.6403,0.6449,0.646,0.6471,0.6475,0.6529,0.6557,0.6545,0.6543,0.6573,0.6603,0.6597,0.6613,0.6652,0.6639,0.6479,0.6456,0.6434,0.6416,0.6655,0.6655,0.6809,0.681,0.6811]},{"header":{"parameterUnit":"m.s-1","parameterCategory":1,"la1":30.2991,"la2":30.254,"lo1":-89.0895,"lo2":-89.0444,"dy":0.0017,"dx":0.0017,"nx":28,"ny":28,"refTime":"2023-10-18T09:00:00:Z","depth":0,"parameterNumber":3,"parameterNumberName":"V-component_of_WINDS"},"data":[0,0,0,0,0,0,0,0,0,0,0,0,0,0,0,0,0,0,0,0,0,0,0,0,0,0,0,0,0,0,0,0,0,0,0,0,0,0,0,0,0,0,0,0,0,0,0,0,0,0,0,0,0,0,0,0,0,0,-0.5965,-0.5967,0,-0.6092,-0.6094,-0.6095,-0.621,-0.6211,-0.6212,-0.6214,-0.6346,-0.6348,-0.6351,0,0,0,0,0,0,0,0,0,0,0,0,0,-0.5824,-0.5826,-0.5965,-0.5967,-0.5968,-0.6092,-0.6094,-0.6096,-0.621,-0.6211,-0.6213,-0.6214,-0.6345,-0.6348,-0.6351,0,0,0,0,0,0,0,0,0,0,0,0,0,-0.5912,-0.5827,-0.5965,-0.604,-0.6048,-0.6092,-0.6094,-0.6096,-0.6209,-0.6211,-0.6213,-0.6215,-0.6345,-0.6348,-0.6351,-0.6332,0,0,-0.6362,-0.6363,0,0,0,0,0,0,0,0,-0.5906,-0.5917,-0.6027,-0.6035,-0.6044,-0.6137,-0.6093,-0.6175,-0.6209,-0.6148,-0.6214,-0.6216,-0.6275,-0.6284,-0.6304,-0.6338,-0.6344,-0.6362,-0.6364,-0.6365,-0.6366,0,0,0,0,0,0,0,-0.59,-0.5912,-0.6016,-0.6029,-0.6039,-0.6068,-0.6083,-0.6109,-0.6199,-0.6153,-0.6162,-0.6175,-0.628,-0.63,-0.6308,-0.6345,-0.6362,-0.6365,-0.6367,-0.6368,-0.6371,-0.6369,0,0,0,0,0,0,-0.5882,-0.5906,-0.6012,-0.6019,-0.5979,-0.6069,-0.6086,-0.6105,-0.6199,-0.6215,-0.6174,-0.618,-0.6294,-0.6304,-0.6313,-0.6296,-0.6365,-0.6369,-0.6371,-0.6373,-0.6371,-0.6369,0,0,0,0,0,0,-0.5879,-0.5891,-0.6006,-0.5965,-0.5982,-0.607,-0.6091,-0.6107,-0.6127,-0.6214,-0.6231,-0.6177,-0.6296,-0.6308,-0.6326,-0.6303,-0.637,-0.6373,-0.6375,-0.6372,-0.637,-0.6263,0,0,0,0,0,0,-0.5874,-0.5889,-0.5881,-0.5964,-0.5984,-0.6016,-0.6089,-0.6108,-0.6132,-0.6142,-0.6222,-0.6237,-0.6298,-0.632,-0.633,-0.6309,-0.6376,-0.6378,-0.6374,-0.6371,-0.6269,-0.6256,-0.6246,0,0,0,0,0,-0.5869,-0.5846,-0.588,-0.5892,-0.5976,-0.6015,-0.6026,-0.6096,-0.613,-0.6124,-0.618,-0.6235,-0.6304,-0.6321,-0.6333,-0.6312,-0.638,-0.6375,-0.6371,-0.6274,-0.6259,-0.6246,0,0,0,0,0,0,-0.5759,-0.5858,-0.5897,-0.5901,-0.5948,-0.6034,-0.6028,-0.6078,-0.6117,-0.6125,-0.6211,-0.6228,-0.6236,-0.6277,-0.6294,-0.6299,-0.6349,-0.6347,-0.6272,-0.6258,-0.6247,-0.6237,-0.6379,0,0,0,0,0,-0.5735,-0.5757,-0.5843,-0.5838,-0.586,-0.5939,-0.5959,-0.6009,-0.6062,-0.6082,-0.614,-0.619,-0.6223,-0.6243,-0.6279,-0.6276,-0.6295,-0.6267,-0.6256,-0.6246,-0.6243,-0.6245,-0.6233,-0.6354,-0.6354,-0.6354,0,0,-0.5686,-0.5743,-0.5752,-0.5817,-0.586,-0.5882,-0.5956,-0.5975,-0.5992,-0.6086,-0.6106,-0.615,-0.6212,-0.6219,-0.6225,-0.6253,-0.6214,-0.6241,-0.6232,-0.6234,-0.6239,-0.6227,-0.6217,-0.6351,-0.6352,-0.6352,0,0,-0.5607,-0.5652,-0.5653,-0.5694,-0.5758,-0.5811,-0.5811,-0.589,-0.5922,-0.5944,-0.6015,-0.6037,-0.6093,-0.6134,-0.6162,-0.61,-0.6152,-0.611,-0.605,-0.6051,-0.6041,-0.6033,-0.6011,-0.6002,-0.6106,-0.6106,-0.6106,0,-0.5538,-0.5572,-0.5647,-0.5663,-0.569,-0.5775,-0.5777,-0.5814,-0.5886,-0.5903,-0.5933,-0.6005,-0.6053,-0.6071,-0.6056,-0.6076,-0.6079,-0.61,-0.6036,-0.6029,-0.6023,-0.6003,-0.5994,-0.61,-0.6101,-0.6102,-0.6102,0,-0.5485,-0.5507,-0.5501,-0.5567,-0.5594,-0.5602,-0.568,-0.5698,-0.5746,-0.5796,-0.5818,-0.5878,-0.5927,-0.5936,-0.5983,-0.5961,-0.5976,-0.602,-0.6072,-0.6004,-0.5987,-0.598,-0.6092,-0.6094,-0.6096,-0.6097,0,0,-0.5339,-0.5447,-0.5443,-0.5475,-0.5552,-0.5572,-0.5585,-0.5632,-0.5646,-0.5694,-0.5707,-0.5753,-0.5794,-0.5826,-0.5879,-0.588,-0.5827,-0.5924,-0.5927,-0.5903,-0.5807,-0.5773,-0.5762,-0.5863,-0.5861,-0.586,-0.5802,0,-0.5272,-0.5299,-0.5367,-0.5374,-0.5396,-0.5478,-0.549,-0.5539,-0.5587,-0.5614,-0.5668,-0.5699,-0.5751,-0.5771,-0.5775,-0.5832,-0.5809,-0.5838,-0.5876,-0.5877,-0.5857,-0.5753,-0.5717,-0.5659,-0.5795,-0.5794,-0.5793,0,-0.5198,-0.5239,-0.5247,-0.5323,-0.5336,-0.5344,-0.5394,-0.5419,-0.5477,-0.5512,-0.5547,-0.5606,-0.5626,-0.5675,-0.5703,-0.5721,-0.5742,-0.5772,-0.5772,-0.5777,-0.583,-0.5755,-0.5642,-0.5632,-0.5783,-0.5784,-0.5785,0,-0.5089,-0.5148,-0.516,-0.5185,-0.5274,-0.5279,-0.5317,-0.5377,-0.5401,-0.5445,-0.5462,-0.5508,-0.5533,-0.5568,-0.5638,-0.5667,-0.5658,-0.5713,-0.5688,-0.5686,-0.5682,-0.5681,-0.5569,-0.5696,-0.5696,-0.5696,-0.5696,0,-0.5007,-0.5009,-0.5113,-0.512,-0.5125,-0.5205,-0.5207,-0.5253,-0.5306,-0.5325,-0.54,-0.5416,-0.5508,-0.5535,-0.559,-0.5606,-0.5617,-0.5646,-0.566,-0.5639,-0.5635,-0.5652,-0.5658,-0.5694,-0.5695,-0.5695,-0.5695,0,-0.4887,-0.4956,-0.4975,-0.5059,-0.508,-0.508,-0.5152,-0.5163,-0.5216,-0.5239,-0.5249,-0.5332,-0.5368,-0.5442,-0.5498,-0.5536,-0.5538,-0.5564,-0.5518,-0.5526,-0.5497,-0.5499,-0.5392,-0.5382,-0.5515,-0.5514,-0.5513,0,-0.4829,-0.4832,-0.4916,-0.4934,-0.4968,-0.4995,-0.5021,-0.51,-0.5124,-0.5191,-0.5194,-0.5236,-0.5273,-0.5327,-0.5393,-0.5437,-0.5465,-0.5425,-0.5472,-0.545,-0.5464,-0.5462,-0.5463,-0.5413,-0.5411,-0.541,-0.5409,0,-0.472,-0.4754,-0.4787,-0.4832,-0.486,-0.49,-0.4944,-0.4954,-0.5044,-0.5067,-0.5104,-0.5133,-0.5191,-0.5232,-0.5286,-0.5327,-0.5382,-0.5393,-0.539,-0.5367,-0.534,-0.5354,-0.5488,-0.5395,-0.5396,-0.5397,-0.5398,-0.5399,-0.4629,-0.4635,-0.4695,-0.473,-0.4771,-0.4811,-0.4825,-0.488,-0.4912,-0.4964,-0.501,-0.5043,-0.5103,-0.5181,-0.5218,-0.5247,-0.5274,-0.5269,-0.5267,-0.5265,-0.5255,-0.5336,-0.5257,-0.5257,-0.5258,-0.5258,-0.5259,0,-0.4523,-0.4565,-0.4596,-0.4655,-0.4682,-0.4733,-0.4784,-0.4804,-0.4832,-0.4882,-0.4918,-0.4961,-0.5002,-0.5071,-0.5118,-0.5127,-0.5154,-0.5136,-0.5136,-0.5144,-0.5228,-0.5226,-0.5114,-0.5114,-0.5114,-0.5114,-0.5114,-0.5114,-0.447,-0.4484,-0.4526,-0.4561,-0.4605,-0.4637,-0.4662,-0.47,-0.474,-0.4785,-0.4818,-0.4864,-0.4922,-0.4974,-0.5013,-0.5033,-0.5047,-0.5021,-0.5048,-0.5125,-0.5139,-0.5151,-0.515,-0.5023,-0.5023,-0.4962,-0.4962,-0.4961]}]]